Weather History for EHAM - December, 2012

Change the Weather History Date:

Tuesday, December 4, 2012

  Actual Average Record
Temperature  
Mean Temperature 40 °F -  
Max Temperature 44 °F 42 °F 55 °F (2006)
Min Temperature 33 °F 34 °F 21 °F (2010)
Degree Days  
Heating Degree Days 26    
Moisture  
Dew Point 36 °F    
Average Humidity 79    
Maximum Humidity 93    
Minimum Humidity 63    
Precipitation  
Precipitation 0.12 in - - ()
Sea Level Pressure  
Sea Level Pressure 29.45 in    
Wind  
Wind Speed 14 mph ()    
Max Wind Speed 26 mph    
Max Gust Speed -    
Visibility 7.5 miles    
Events Rain    
Averages and records for this station are not official NWS values.
T = Trace of Precipitation, MM = Missing Value Source: Averaged Metar Reports

Daily Weather History Graph

Daily Weather History Graph

Search for Another Location

Airport or City:

Trip Planner

Search our weather history database for the weather conditions in past years. The results will help you decide how hot, cold, wet, or windy it might be!

Date:

Astronomy

Dec. 04, 2012 Rise Set
Actual Time 8:32 AM CET 4:29 PM CET
Civil Twilight 7:52 AM CET 5:10 PM CET
Nautical Twilight 7:08 AM CET 5:53 PM CET
Astronomical Twilight 6:27 AM CET 6:34 PM CET
Moon 10:29 PM CET (12/4) 11:53 AM CET (12/4)
Length of Visible Light 9h 17m
Length of Day
7h 57m
Waning Gibbous, 72% of the Moon is Illuminated
Dec 4
Waning Gibbous
Dec 6
Last Quarter
Dec 13
New
Dec 20
First Quarter
Dec 28
Full

Hourly Weather History & Observations

Time (CET) Temp. Windchill Dew Point Humidity Pressure Visibility Wind Dir Wind Speed Gust Speed Precip Events Conditions
12:25 AM 42.8 °F 35.8 °F 37.4 °F 81% 29.53 in 6.2 mi West 13.8 mph - N/A   Scattered Clouds
12:55 AM 42.8 °F 35.1 °F 35.6 °F 76% 29.53 in 6.2 mi West 16.1 mph - N/A   Scattered Clouds
1:00 AM 43 °F - 36 °F 69%  in 15 mi West 17.9 mph - -   Partly Cloudy
1:25 AM 42.8 °F 35.4 °F 35.6 °F 76% 29.50 in 6.2 mi West 15.0 mph - N/A   Partly Cloudy
1:55 AM 42.8 °F 35.8 °F 35.6 °F 76% 29.50 in 6.2 mi West 13.8 mph - N/A   Partly Cloudy
2:25 AM 41.0 °F 34.3 °F 35.6 °F 81% 29.50 in 6.2 mi West 11.5 mph - N/A   Scattered Clouds
2:55 AM 42.8 °F 36.2 °F 37.4 °F 81% 29.47 in 6.2 mi West 12.7 mph - N/A   Scattered Clouds
3:25 AM 42.8 °F 35.8 °F 35.6 °F 76% 29.47 in 6.2 mi West 13.8 mph - N/A   Partly Cloudy
3:55 AM 42.8 °F 35.1 °F 35.6 °F 76% 29.47 in 6.2 mi West 16.1 mph - N/A   Partly Cloudy
4:00 AM 42 °F - 36 °F 73% 29.48 in 14 mi West 13.4 mph - -   Scattered Clouds
4:25 AM 42.8 °F 35.4 °F 37.4 °F 81% 29.44 in 6.2 mi West 15.0 mph - N/A   Partly Cloudy
4:55 AM 42.8 °F 35.8 °F 37.4 °F 81% 29.44 in 6.2 mi West 13.8 mph - N/A   Scattered Clouds
5:25 AM 42.8 °F 35.4 °F 37.4 °F 81% 29.44 in 6.2 mi West 15.0 mph - N/A   Partly Cloudy
5:55 AM 42.8 °F 35.4 °F 37.4 °F 81% 29.42 in 6.2 mi West 15.0 mph - N/A   Partly Cloudy
6:25 AM 42.8 °F 35.1 °F 37.4 °F 81% 29.42 in 6.2 mi West 16.1 mph - N/A   Scattered Clouds
6:55 AM 42.8 °F 35.8 °F 37.4 °F 81% 29.42 in 6.2 mi West 13.8 mph - N/A   Scattered Clouds
7:00 AM 42 °F - 37 °F 75% 29.42 in 16 mi West 15.7 mph - -   Partly Cloudy
7:25 AM 42.8 °F 35.4 °F 37.4 °F 81% 29.42 in 6.2 mi West 15.0 mph - N/A Rain Light Rain Showers
7:55 AM 42.8 °F 34.5 °F 37.4 °F 81% 29.42 in 6.2 mi West 18.4 mph - N/A   Scattered Clouds
8:25 AM 42.8 °F 34.5 °F 37.4 °F 81% 29.42 in 6.2 mi West 18.4 mph - N/A   Mostly Cloudy
8:55 AM 42.8 °F 34.0 °F 35.6 °F 76% 29.42 in 6.2 mi West 20.7 mph - N/A   Mostly Cloudy
9:25 AM 42.8 °F 34.5 °F 37.4 °F 81% 29.42 in 6.2 mi West 18.4 mph - N/A   Mostly Cloudy
9:55 AM 42.8 °F 34.5 °F 37.4 °F 81% 29.39 in 6.2 mi West 18.4 mph - N/A   Mostly Cloudy
10:00 AM 43 °F - 37 °F 72% 29.42 in 14 mi West 20.1 mph - -   Partly Cloudy
10:25 AM 44.6 °F 35.9 °F 37.4 °F 76% 29.42 in 6.2 mi West 23.0 mph - N/A   Mostly Cloudy
10:55 AM 44.6 °F 35.5 °F 37.4 °F 76% 29.39 in 6.2 mi West 25.3 mph - N/A   Mostly Cloudy
11:25 AM 42.8 °F 33.1 °F 37.4 °F 81% 29.39 in 6.2 mi West 25.3 mph - N/A Rain Light Rain Showers
11:55 AM 42.8 °F 32.9 °F 39.2 °F 87% 29.39 in 4.3 mi West 26.5 mph - N/A Rain Rain Showers
12:25 PM 41.0 °F 30.9 °F 39.2 °F 93% 29.39 in 2.5 mi WNW 24.2 mph - N/A Rain Rain Showers
12:55 PM 42.8 °F 34.8 °F 39.2 °F 87% 29.39 in 6.2 mi WNW 17.3 mph - N/A   Scattered Clouds
1:00 PM 43 °F - 40 °F 84% 29.40 in 14 mi WNW 15.7 mph - - Rain Rain
1:25 PM 44.6 °F 37.8 °F 41.0 °F 87% 29.39 in 6.2 mi WNW 15.0 mph - N/A   Scattered Clouds
1:55 PM 44.6 °F 36.9 °F 37.4 °F 76% 29.42 in 6.2 mi NW 18.4 mph - N/A   Partly Cloudy
2:25 PM 44.6 °F 37.2 °F 35.6 °F 71% 29.42 in 6.2 mi NW 17.3 mph - N/A   Partly Cloudy
2:55 PM 44.6 °F 36.9 °F 35.6 °F 71% 29.42 in 6.2 mi NW 18.4 mph - N/A   Partly Cloudy
3:25 PM 42.8 °F 35.1 °F 35.6 °F 76% 29.42 in 6.2 mi NW 16.1 mph - N/A   Partly Cloudy
3:55 PM 42.8 °F 35.4 °F 35.6 °F 76% 29.44 in 6.2 mi NW 15.0 mph - N/A   Partly Cloudy
4:00 PM 43 °F - 35 °F 63% 29.46 in 17 mi NW 15.7 mph - -   Scattered Clouds
4:25 PM 42.8 °F 35.4 °F 33.8 °F 70% 29.44 in 6.2 mi NW 15.0 mph - N/A   Partly Cloudy
4:55 PM 41.0 °F 33.1 °F 33.8 °F 76% 29.44 in 6.2 mi NW 15.0 mph - N/A   Partly Cloudy
5:25 PM 41.0 °F 33.9 °F 33.8 °F 76% 29.47 in 6.2 mi WNW 12.7 mph - N/A   Partly Cloudy
5:55 PM 41.0 °F 33.9 °F 33.8 °F 76% 29.47 in 6.2 mi NW 12.7 mph - N/A   Partly Cloudy
6:25 PM 41.0 °F 35.2 °F 33.8 °F 76% 29.47 in 6.2 mi WNW 9.2 mph - N/A   Partly Cloudy
6:55 PM 41.0 °F 34.7 °F 35.6 °F 81% 29.47 in 6.2 mi NW 10.4 mph - N/A   Scattered Clouds
7:00 PM 41 °F - 35 °F 71% 29.50 in 19 mi NW 8.9 mph - -   Partly Cloudy
7:25 PM 41.0 °F 35.8 °F 35.6 °F 81% 29.50 in 6.2 mi NNW 8.1 mph - N/A Rain Light Rain
7:55 PM 41.0 °F 35.8 °F 35.6 °F 81% 29.50 in 6.2 mi NNW 8.1 mph - N/A   Mostly Cloudy
8:25 PM 41.0 °F 36.4 °F 33.8 °F 76% 29.50 in 6.2 mi NNW 6.9 mph - N/A   Scattered Clouds
8:55 PM 39.2 °F 35.9 °F 33.8 °F 81% 29.50 in 6.2 mi NNW 4.6 mph - N/A   Mostly Cloudy
9:25 PM 39.2 °F 35.9 °F 33.8 °F 81% 29.50 in 6.2 mi North 4.6 mph - N/A   Scattered Clouds
9:55 PM 37.4 °F 32.8 °F 33.8 °F 87% 29.50 in 6.2 mi North 5.8 mph - N/A   Partly Cloudy
10:00 PM 37 °F - 33 °F 80% 29.53 in 17 mi NNE 4.5 mph - -   Partly Cloudy
10:25 PM 37.4 °F 33.8 °F 33.8 °F 87% 29.50 in 6.2 mi NNE 4.6 mph - N/A   Partly Cloudy
10:55 PM 37.4 °F 33.8 °F 33.8 °F 87% 29.53 in 6.2 mi North 4.6 mph - N/A   Partly Cloudy
11:25 PM 35.6 °F - 33.8 °F 93% 29.53 in 6.2 mi North 2.3 mph - N/A   Partly Cloudy
11:55 PM 33.8 °F - 32.0 °F 93% 29.53 in 6.2 mi West 2.3 mph - N/A   Partly Cloudy